Kerkyra, Greece

7:12 AM EEST on April 24, 2017 (GMT +0300)
Ioannis Kapodistrias

Weather History for LGKR - March, 2013

Change the Weather History Date:

Saturday, March 16, 2013

  Actual Average Record
Temperature  
Mean Temperature 47 °F -  
Max Temperature 52 °F 64 °F 68 °F (2005)
Min Temperature 42 °F 47 °F 39 °F (2009)
Degree Days  
Heating Degree Days 18    
Moisture  
Dew Point 39 °F    
Average Humidity 74    
Maximum Humidity 100    
Minimum Humidity 57    
Precipitation  
Precipitation 0.00 in 0.10 in - ()
Sea Level Pressure  
Sea Level Pressure 29.87 in    
Wind  
Wind Speed 13 mph ()    
Max Wind Speed 21 mph    
Max Gust Speed 34 mph    
Visibility 6.4 miles    
Events Rain    
Averages and records for this station are not official NWS values.
T = Trace of Precipitation, MM = Missing Value Source: Averaged Metar Reports

Daily Weather History Graph

Daily Weather History Graph

Search for Another Location

Airport or City:

Trip Planner

Search our weather history database for the weather conditions in past years. The results will help you decide how hot, cold, wet, or windy it might be!

Date:

Astronomy

Mar. 16, 2013 Rise Set
Actual Time 6:50 AM EET 6:48 PM EET
Civil Twilight 6:23 AM EET 7:15 PM EET
Nautical Twilight 5:52 AM EET 7:46 PM EET
Astronomical Twilight 5:20 AM EET 8:18 PM EET
Moon 9:08 AM EET (3/16) 11:39 PM EET (3/16)
Length of Visible Light 12h 51m
Length of Day
11h 58m
Waxing Crescent, 21% of the Moon is Illuminated
Mar 16
Waxing Crescent
Mar 19
First Quarter
Mar 27
Full
Apr 3
Last Quarter
Apr 10
New

Hourly Weather History & Observations

Time (EET) Temp. Windchill Dew Point Humidity Pressure Visibility Wind Dir Wind Speed Gust Speed Precip Events Conditions
12:20 AM 42.8 °F 37.0 °F 42.8 °F 100% 29.65 in 6.2 mi NW 10.4 mph - N/A   Mostly Cloudy
12:50 AM 42.8 °F 37.0 °F 39.2 °F 87% 29.65 in 6.2 mi NW 10.4 mph - N/A   Mostly Cloudy
1:20 AM 42.8 °F 37.0 °F 39.2 °F 87% 29.65 in 6.2 mi NW 10.4 mph - N/A   Mostly Cloudy
1:50 AM 46.4 °F 41.5 °F 39.2 °F 76% 29.68 in 6.2 mi WNW 10.4 mph - N/A   Mostly Cloudy
2:00 AM 46 °F - 39 °F 68% 29.69 in 6 mi WNW 10.4 mph - -   Partly Cloudy
2:20 AM 46.4 °F 39.5 °F 39.2 °F 76% 29.68 in 6.2 mi NW 17.3 mph - N/A   Mostly Cloudy
2:50 AM 46.4 °F 39.0 °F 39.2 °F 76% 29.71 in 6.2 mi NNW 19.6 mph - N/A   Mostly Cloudy
3:20 AM 46.4 °F 39.0 °F 39.2 °F 76% 29.71 in 6.2 mi NW 19.6 mph - N/A   Mostly Cloudy
3:50 AM 46.4 °F 39.0 °F 39.2 °F 76% 29.71 in 6.2 mi NW 19.6 mph - N/A   Mostly Cloudy
4:20 AM 46.4 °F 39.5 °F 39.2 °F 76% 29.71 in 6.2 mi NW 17.3 mph - N/A   Mostly Cloudy
4:50 AM 46.4 °F 39.5 °F 39.2 °F 76% 29.71 in 6.2 mi NW 17.3 mph - N/A   Mostly Cloudy
5:20 AM 46.4 °F 39.5 °F 39.2 °F 76% 29.71 in 6.2 mi NW 17.3 mph - N/A   Mostly Cloudy
5:50 AM 46.4 °F 38.7 °F 39.2 °F 76% 29.74 in 6.2 mi NW 20.7 mph - N/A   Mostly Cloudy
6:20 AM 46.4 °F 39.5 °F 39.2 °F 76% 29.74 in 6.2 mi WNW 17.3 mph - N/A Rain Light Rain
6:50 AM 44.6 °F 37.4 °F 39.2 °F 81% 29.77 in 6.2 mi WNW 16.1 mph - N/A Rain Light Rain
7:20 AM 42.8 °F 35.4 °F 39.2 °F 87% 29.77 in 6.2 mi WNW 15.0 mph - N/A Rain Light Rain
7:50 AM 44.6 °F 39.7 °F 41.0 °F 87% 29.77 in 6.2 mi NW 9.2 mph - N/A   Mostly Cloudy
8:00 AM 44 °F - 42 °F 89% 29.80 in 12 mi NW 9.2 mph - - Rain Light Rain
8:20 AM 44.6 °F 38.8 °F 41.0 °F 87% 29.80 in 6.2 mi NW 11.5 mph - N/A   Mostly Cloudy
8:50 AM 48.2 °F - 39.2 °F 71% 29.80 in 6.2 mi NW 15.0 mph - N/A   Mostly Cloudy
9:20 AM 48.2 °F - 39.2 °F 71% 29.83 in 6.2 mi NW 16.1 mph - N/A   Mostly Cloudy
9:50 AM 48.2 °F - 41.0 °F 76% 29.86 in 6.2 mi NW 16.1 mph - N/A   Mostly Cloudy
10:20 AM 46.4 °F 40.4 °F 39.2 °F 76% 29.86 in 6.2 mi NW 13.8 mph - N/A   Mostly Cloudy
10:50 AM 48.2 °F - 41.0 °F 76% 29.86 in 6.2 mi NW 12.7 mph - N/A   Mostly Cloudy
11:20 AM 48.2 °F - 41.0 °F 76% 29.89 in 6.2 mi NW 16.1 mph - N/A   Mostly Cloudy
11:50 AM 48.2 °F - 41.0 °F 76% 29.89 in 6.2 mi WNW 15.0 mph - N/A   Mostly Cloudy
12:20 PM 50.0 °F - 41.0 °F 71% 29.89 in 6.2 mi NW 15.0 mph - N/A   Mostly Cloudy
12:50 PM 51.8 °F - 42.8 °F 71% 29.89 in 6.2 mi NW 18.4 mph - N/A   Mostly Cloudy
1:20 PM 53.6 °F - 42.8 °F 67% 29.89 in 6.2 mi NNW 17.3 mph - N/A   Mostly Cloudy
1:50 PM 51.8 °F - 41.0 °F 67% 29.92 in 6.2 mi NW 18.4 mph - N/A   Mostly Cloudy
2:00 PM 51 °F - 40 °F 57% 29.92 in 12 mi NW 18.4 mph - -   Partly Cloudy
2:20 PM 51.8 °F - 41.0 °F 67% 29.92 in 6.2 mi NW 20.7 mph 34.5 mph N/A   Mostly Cloudy
2:50 PM 51.8 °F - 41.0 °F 67% 29.92 in 6.2 mi NW 18.4 mph 32.2 mph N/A   Mostly Cloudy
3:20 PM 51.8 °F - 41.0 °F 67% 29.92 in 6.2 mi NNW 19.6 mph 34.5 mph N/A   Mostly Cloudy
3:50 PM 51.8 °F - 39.2 °F 62% 29.95 in 6.2 mi NW 17.3 mph 28.8 mph N/A   Mostly Cloudy
4:20 PM 51.8 °F - 41.0 °F 67% 29.95 in 6.2 mi NW 19.6 mph - N/A   Mostly Cloudy
4:50 PM 50.0 °F - 39.2 °F 66% 29.95 in 6.2 mi NW 17.3 mph - N/A   Mostly Cloudy
5:20 PM 50.0 °F - 39.2 °F 66% 29.95 in 6.2 mi NNW 19.6 mph - N/A   Mostly Cloudy
5:50 PM 48.2 °F - 42.8 °F 82% 29.98 in 6.2 mi NW 17.3 mph - N/A   Mostly Cloudy
6:20 PM 48.2 °F - 42.8 °F 82% 29.98 in 6.2 mi NW 15.0 mph - N/A   Mostly Cloudy
6:50 PM 48.2 °F - 41.0 °F 76% 30.01 in 6.2 mi NW 15.0 mph - N/A   Mostly Cloudy
7:20 PM 46.4 °F 40.4 °F 39.2 °F 76% 30.01 in 6.2 mi NW 13.8 mph - N/A   Mostly Cloudy
7:50 PM 46.4 °F 40.7 °F 37.4 °F 71% 30.04 in 6.2 mi NNW 12.7 mph - N/A   Scattered Clouds
8:00 PM 46 °F - 38 °F 63% 30.04 in 6 mi NNW 12.7 mph - -   Partly Cloudy
8:20 PM 46.4 °F 40.7 °F 37.4 °F 71% 30.04 in 6.2 mi NW 12.7 mph - N/A Rain Light Rain
8:50 PM 46.4 °F 40.1 °F 33.8 °F 62% 30.04 in 6.2 mi NW 15.0 mph - N/A   Mostly Cloudy
9:20 PM 46.4 °F 40.1 °F 33.8 °F 62% 30.04 in 6.2 mi NW 15.0 mph - N/A   Mostly Cloudy
9:50 PM 44.6 °F 38.4 °F 35.6 °F 71% 30.06 in 6.2 mi NW 12.7 mph - N/A   Scattered Clouds
10:20 PM 44.6 °F 38.4 °F 35.6 °F 71% 30.06 in 6.2 mi NW 12.7 mph - N/A   Scattered Clouds
10:50 PM 44.6 °F 39.2 °F 35.6 °F 71% 30.09 in 6.2 mi WNW 10.4 mph - N/A   Scattered Clouds
11:20 PM 42.8 °F 38.0 °F 35.6 °F 76% 30.09 in 6.2 mi NW 8.1 mph - N/A   Scattered Clouds
11:50 PM 42.8 °F 37.5 °F 35.6 °F 76% 30.09 in 6.2 mi NNW 9.2 mph - N/A   Scattered Clouds